This is the latest recevied weather packets stored in our database for station/object SQ7RAF-15. If no packets are shown the sender has not sent any weather packets the latest 10 day(s).
| Time | Temp. | Humidity | Pressure | Rain* | Wind** | Luminosity | Snow |
|---|---|---|---|---|---|---|---|
| 1778179816 | 10° C | 93% | 1014.1 hPa | 0 mm | - | 0 W/m² | - |
| 1778179529 | 10.56° C | 93% | 1014 hPa | 0 mm | - | 0 W/m² | - |
| 1778179240 | 10.56° C | 93% | 1014 hPa | 0 mm | - | 0 W/m² | - |
| 1778178921 | 10.56° C | 93% | 1013.9 hPa | 0 mm | - | 0 W/m² | - |
| 1778178616 | 10.56° C | 92% | 1013.7 hPa | 0 mm | - | 0 W/m² | - |
| 1778178328 | 10.56° C | 92% | 1013.8 hPa | 0 mm | - | 0 W/m² | - |
| 1778178040 | 10.56° C | 92% | 1013.7 hPa | 0 mm | - | 0 W/m² | - |
| 1778177720 | 10.56° C | 92% | 1013.7 hPa | 0 mm | - | 0 W/m² | - |
| 1778177432 | 10.56° C | 92% | 1013.6 hPa | 0 mm | - | 0 W/m² | - |
| 1778177144 | 10.56° C | 92% | 1013.6 hPa | 0 mm | - | 0 W/m² | - |
| 1778176824 | 11.11° C | 91% | 1013.3 hPa | 0 mm | - | 2 W/m² | - |
| 1778176537 | 11.11° C | 91% | 1013.3 hPa | 0 mm | - | 3 W/m² | - |
| 1778176216 | 11.11° C | 91% | 1013.3 hPa | 0 mm | - | 4 W/m² | - |
| 1778175928 | 11.11° C | 91% | 1013.2 hPa | 0 mm | - | 4 W/m² | - |
| 1778175640 | 11.11° C | 91% | 1013.2 hPa | 0 mm | - | 4 W/m² | - |
| 1778175032 | 11.11° C | 91% | 1013.1 hPa | 0 mm | - | 8 W/m² | - |
| 1778174744 | 11.67° C | 90% | 1013.2 hPa | 0 mm | - | 8 W/m² | - |
| 1778174423 | 11.67° C | 90% | 1013.1 hPa | 0 mm | - | 10 W/m² | - |
| 1778174123 | 11.67° C | 90% | 1013 hPa | 0 mm | - | 12 W/m² | - |
| 1778173832 | 11.67° C | 90% | 1013 hPa | 0 mm | - | 15 W/m² | - |
| 1778173547 | 11.67° C | 90% | 1012.8 hPa | 0 mm | - | 13 W/m² | - |
| 1778173224 | 11.67° C | 90% | 1012.7 hPa | 0 mm | - | 18 W/m² | - |
| 1778172936 | 11.67° C | 90% | 1012.7 hPa | 0 mm | - | 25 W/m² | - |
| 1778172616 | 11.67° C | 90% | 1012.7 hPa | 0 mm | - | 31 W/m² | - |
| 1778172328 | 11.67° C | 90% | 1012.6 hPa | 0 mm | - | 39 W/m² | - |
* Rain latest hour (hover to see other rain measurements)
** Current wind speed in m/s (hover to see current wind gust speed)